TimePST,TemperatureF,Dew PointF,Humidity,Sea Level PressureIn,VisibilityMPH,Wind Direction,Wind SpeedMPH,Gust SpeedMPH,PrecipitationIn,Events,Conditions,WindDirDegrees,DateUTC
12:53 AM,26.1,23.0,88,30.17,10.0,North,6.9,-,N/A,,Clear,360,2012-12-25 08:53:00
1:53 AM,27.0,24.1,89,30.15,10.0,NNE,6.9,-,N/A,,Partly Cloudy,20,2012-12-25 09:53:00
2:15 AM,26.6,24.8,93,30.11,10.0,North,9.2,-,N/A,,Partly Cloudy,360,2012-12-25 10:15:00
2:53 AM,27.0,25.0,92,30.15,10.0,North,10.4,-,N/A,,Clear,360,2012-12-25 10:53:00
3:17 AM,26.6,24.8,93,30.10,10.0,North,9.2,-,N/A,,Scattered Clouds,10,2012-12-25 11:17:00
3:26 AM,28.4,24.8,86,30.09,10.0,North,9.2,-,N/A,,Mostly Cloudy,10,2012-12-25 11:26:00
3:53 AM,28.0,26.1,92,30.13,10.0,North,12.7,-,N/A,,Overcast,10,2012-12-25 11:53:00
4:04 AM,28.4,26.6,93,30.08,10.0,North,11.5,-,N/A,,Overcast,10,2012-12-25 12:04:00
4:53 AM,28.9,27.0,92,30.10,10.0,North,11.5,-,N/A,,Overcast,360,2012-12-25 12:53:00
5:53 AM,28.9,28.0,96,30.07,10.0,North,10.4,-,N/A,,Overcast,10,2012-12-25 13:53:00
6:09 AM,30.2,28.4,93,30.02,10.0,North,9.2,-,N/A,,Overcast,350,2012-12-25 14:09:00
6:53 AM,30.0,28.0,92,30.05,10.0,North,9.2,-,N/A,,Overcast,360,2012-12-25 14:53:00
7:45 AM,28.4,26.6,93,29.99,10.0,North,10.4,-,N/A,,Scattered Clouds,10,2012-12-25 15:45:00
7:53 AM,28.9,27.0,92,30.04,10.0,North,10.4,-,N/A,,Mostly Cloudy,360,2012-12-25 15:53:00
8:53 AM,30.0,27.0,88,30.01,10.0,North,10.4,-,N/A,,Overcast,360,2012-12-25 16:53:00
9:53 AM,30.9,27.0,85,30.00,10.0,North,10.4,-,N/A,,Overcast,360,2012-12-25 17:53:00
10:53 AM,32.0,28.0,85,29.96,10.0,North,9.2,-,N/A,,Mostly Cloudy,10,2012-12-25 18:53:00
11:53 AM,33.1,27.0,78,29.92,10.0,NE,8.1,-,N/A,,Overcast,40,2012-12-25 19:53:00
12:53 PM,33.1,26.1,75,29.91,10.0,ENE,4.6,-,N/A,,Overcast,70,2012-12-25 20:53:00
1:28 PM,32.0,26.6,80,29.86,2.5,North,3.5,-,0.00,Snow,Light Snow,360,2012-12-25 21:28:00
1:37 PM,32.0,26.6,80,29.85,2.0,North,3.5,-,0.00,Snow,Light Snow,10,2012-12-25 21:37:00
1:44 PM,32.0,28.4,87,29.85,1.2,North,4.6,-,0.00,Snow,Light Snow,10,2012-12-25 21:44:00
1:53 PM,30.9,28.0,89,29.90,1.0,North,4.6,-,0.00,Snow,Light Snow,10,2012-12-25 21:53:00
2:42 PM,30.2,28.4,93,29.84,1.0,NNE,5.8,-,0.01,Snow,Light Snow,30,2012-12-25 22:42:00
2:53 PM,30.9,28.9,92,29.89,1.0,NE,5.8,-,0.02,Snow,Light Snow,40,2012-12-25 22:53:00
3:05 PM,30.2,28.4,93,29.84,0.8,NNE,5.8,-,0.00,Snow,Light Snow,30,2012-12-25 23:05:00
3:53 PM,30.9,28.9,92,29.88,0.8,NNE,5.8,-,0.02,Snow,Light Snow,20,2012-12-25 23:53:00
4:05 PM,30.2,30.2,100,29.84,0.8,North,4.6,-,0.01,Snow,Light Snow,360,2012-12-26 00:05:00
4:27 PM,30.2,30.2,100,29.84,1.0,NNE,5.8,-,0.02,Snow,Light Snow,20,2012-12-26 00:27:00
4:43 PM,30.2,30.2,100,29.83,2.5,NNE,5.8,-,0.03,Snow,Light Snow,20,2012-12-26 00:43:00
4:53 PM,30.9,30.0,96,29.87,3.0,NNE,5.8,-,0.03,Snow,Light Snow,20,2012-12-26 00:53:00
5:06 PM,30.2,30.2,100,29.83,3.0,NNE,5.8,-,0.00,Snow,Light Snow,20,2012-12-26 01:06:00
5:26 PM,30.2,30.2,100,29.83,4.0,North,4.6,-,0.00,Snow,Light Snow,10,2012-12-26 01:26:00
5:37 PM,30.2,30.2,100,29.83,2.5,North,4.6,-,0.00,Snow,Light Snow,10,2012-12-26 01:37:00
5:53 PM,30.9,30.0,96,29.87,2.0,North,4.6,-,0.01,Snow,Light Snow,360,2012-12-26 01:53:00
6:09 PM,30.2,30.2,100,29.82,3.0,North,4.6,-,0.00,Snow,Light Snow,360,2012-12-26 02:09:00
6:53 PM,30.9,30.0,96,29.86,10.0,North,5.8,-,0.00,,Overcast,350,2012-12-26 02:53:00
7:53 PM,32.0,30.0,92,29.85,10.0,NNE,6.9,-,N/A,,Overcast,20,2012-12-26 03:53:00
8:53 PM,32.0,30.0,92,29.85,10.0,NNE,6.9,-,N/A,,Overcast,20,2012-12-26 04:53:00
9:53 PM,32.0,30.0,92,29.84,10.0,North,5.8,-,N/A,,Overcast,10,2012-12-26 05:53:00
10:53 PM,32.0,30.9,96,29.85,9.0,North,5.8,-,N/A,,Overcast,360,2012-12-26 06:53:00
11:53 PM,32.0,30.9,96,29.85,8.0,North,5.8,-,N/A,,Overcast,360,2012-12-26 07:53:00